Wind_Speed
25 27 19 11 13 11 6 9 9 14 7 6 1 7 15 19 16 15 7 16 17 15 17 8 2 8 10 7 6 10 10 7 8 11 14 15 15 13 9 10 12 10 13 8
25 24 15 18 19 12 5 4 2 4 12 14 9 10 6 10 14 14 15 18 18 13 8 10 8 1 4 8 11 11 13 13 11 9 8 12 5 1 4 9 9 10 9 9
17 11 24 25 23 15 12 7 1 3 5 7 7 4 2 5 12 10 11 18 23 10 10 4 4 5 4 7 13 14 12 13 15 15 15 13 14 12 12 7 2 7 6 10
19 19 29 31 30 20 17 10 9 6 8 9 11 6 6 6 7 13 6 10 15 13 5 6 2 1 3 5 8 11 12 12 14 15 16 15 15 13 14 14 10 9 12 12
16 15 24 32 28 23 23 18 14 10 12 15 12 16 5 2 5 6 6 4 10 9 4 1 2 2 1 2 8 8 10 11 15 13 14 13 13 12 13 11 12 15 14 14
17 14 15 29 35 33 29 24 16 16 17 21 18 27 9 7 8 5 6 5 5 3 6 3 1 2 4 2 1 8 9 11 10 9 9 8 7 7 6 7 7 10 12 11
17 19 20 23 33 34 33 16 18 22 25 26 23 20 22 16 16 9 7 2 6 3 4 7 7 3 5 5 4 4 8 10 9 8 7 5 4 4 4 5 5 6 7 9
12 17 18 14 19 29 29 20 18 20 22 27 28 27 12 12 12 9 11 6 4 4 10 10 8 7 5 5 6 6 6 5 4 3 1 1 1 2 4 4 2 3 3 4
12 16 18 14 11 13 25 22 19 13 15 15 17 17 6 10 10 13 11 8 5 2 13 10 7 8 7 6 5 5 7 5 5 7 7 4 2 1 2 2 1 2 2 6
12 22 23 20 17 14 12 23 21 15 13 14 16 19 14 15 12 10 6 7 11 3 9 12 8 9 10 8 5 4 2 5 8 8 8 7 4 4 4 2 3 3 5 4
12 13 21 26 25 23 18 21 24 19 17 10 8 15 18 20 14 8 11 10 8 7 11 14 14 11 8 4 4 4 4 1 4 7 7 6 6 7 7 5 5 2 4 5
18 18 15 20 28 31 27 26 23 20 20 18 11 14 10 11 13 12 15 17 13 9 19 21 18 10 6 1 2 3 7 4 2 3 7 7 6 9 9 7 7 5 5 2
13 10 9 15 28 35 34 32 30 28 26 23 19 12 15 15 13 13 14 13 10 8 9 18 20 19 16 16 13 9 9 8 7 3 5 9 10 11 12 11 9 7 8 6
11 11 9 13 21 30 36 36 30 26 24 26 27 22 19 20 18 16 13 17 9 5 11 8 13 15 14 13 18 14 14 10 12 10 6 9 13 14 15 13 11 11 11 12
13 13 12 9 15 21 30 33 32 31 32 33 32 29 26 23 24 21 19 13 10 12 12 18 14 16 17 14 21 18 18 22 12 12 13 13 16 18 19 16 17 16 16 16
19 14 16 12 14 14 17 23 36 39 35 34 35 36 33 30 31 30 24 21 21 19 17 18 19 23 25 26 28 20 15 24 28 28 25 16 21 19 21 23 24 21 20 21
21 21 19 15 19 16 14 19 20 28 37 43 43 40 39 38 38 35 34 28 24 23 23 25 26 30 31 26 25 28 28 30 31 34 37 35 44 24 21 27 30 28 27 26
21 22 21 20 18 19 20 21 19 23 24 27 33 39 44 43 39 37 36 33 28 27 29 30 31 31 33 35 37 37 38 39 42 38 37 41 42 35 30 30 34 36 34 32
23 24 22 20 20 18 22 24 25 28 29 26 23 25 28 34 41 42 44 43 39 39 39 42 42 43 42 41 43 47 43 44 45 54 50 48 50 47 39 39 38 40 41 39
25 24 26 23 23 23 21 22 24 28 33 31 30 28 25 26 23 26 35 46 49 50 51 55 53 51 49 49 51 45 46 51 49 46 49 44 43 51 50 47 46 45 44 45
26 28 28 28 29 27 23 20 23 29 32 34 34 35 34 30 30 29 26 28 30 33 40 44 43 44 43 41 38 40 38 33 33 39 47 48 46 52 52 52 49 48 48 49
30 31 33 33 34 34 29 28 27 29 29 32 34 35 35 33 30 29 30 31 31 30 33 33 33 34 33 34 32 33 37 38 31 32 39 42 44 49 55 64 38 46 49 51
29 30 32 34 34 35 34 36 35 35 36 36 36 37 37 37 35 34 32 33 34 35 34 34 35 38 34 35 34 34 33 36 36 35 38 41 44 46 54 63 40 44 50 54
31 34 35 35 32 38 41 41 41 40 41 42 41 40 40 41 40 38 38 36 33 31 32 35 34 35 36 35 37 37 36 37 42 41 42 45 45 47 56 28 28 41 56 54
28 35 38 41 36 42 44 46 46 44 44 45 46 44 43 44 44 44 43 40 39 39 39 35 38 39 35 39 41 42 42 41 40 47 49 49 49 50 52 50 48 43 44 42
28 35 42 43 39 45 44 48 49 48 46 45 46 47 48 47 46 46 46 48 48 47 46 44 44 44 44 43 42 45 48 46 47 43 45 52 53 55 57 51 51 51 39 38
Wind_Direction
233 235 231 212 226 213 176 87 76 350 155 246 224 22 64 38 46 68 65 52 50 43 45 43 302 262 249 215 179 186 172 193 202 209 213 205 209 216 240 253 231 253 247 223
231 238 231 220 227 217 196 151 329 326 313 335 340 355 39 43 34 30 13 91 67 64 55 58 58 26 233 207 151 158 146 139 133 128 147 197 192 199 263 240 220 226 235 223
236 214 217 219 222 222 214 200 249 316 266 301 308 23 20 48 39 23 32 93 57 75 76 76 80 60 117 132 131 133 131 129 123 120 113 104 92 82 69 125 284 183 205 187
233 204 203 212 217 228 228 234 239 273 276 302 298 346 16 129 61 17 67 96 16 18 85 70 88 70 73 147 135 125 128 126 117 113 104 91 87 85 78 73 80 105 127 146
242 230 214 210 214 228 236 242 248 272 286 277 290 293 120 121 42 357 134 60 25 31 53 69 22 198 194 72 151 136 119 119 117 108 104 95 92 86 81 88 98 100 114 125
230 225 219 217 212 228 243 244 250 260 267 265 274 273 218 274 313 195 132 91 351 39 336 221 195 210 206 177 111 146 142 139 132 121 99 90 100 109 94 86 103 112 121 130
216 215 217 217 218 226 237 247 258 262 257 261 265 281 278 267 266 234 147 119 332 199 282 179 166 191 190 191 177 128 145 146 150 137 116 88 92 119 121 98 102 117 143 157
221 213 205 212 232 228 235 238 262 276 266 260 260 261 252 247 244 262 259 149 354 19 171 148 173 193 183 177 191 177 155 160 182 191 199 114 104 122 155 139 122 97 127 163
188 202 205 210 236 257 222 233 254 276 265 248 217 228 242 241 227 233 251 216 266 319 226 209 167 182 202 176 197 208 197 197 233 267 270 267 264 199 214 234 312 17 290 225
218 211 210 226 238 254 247 234 241 249 280 264 245 241 230 214 207 193 190 223 251 275 222 233 251 190 204 198 201 209 218 229 239 253 277 273 255 225 192 193 163 2 7 223
309 283 222 232 232 229 241 236 242 248 256 257 233 247 253 237 214 216 192 211 240 209 235 226 229 201 192 216 212 243 246 201 257 260 266 277 246 220 208 205 188 267 337 8
326 287 261 231 232 229 230 237 234 240 254 249 221 224 235 245 241 211 194 214 233 227 209 218 168 196 199 221 277 282 265 275 302 290 278 259 254 231 235 237 224 233 274 327
287 284 263 244 234 233 234 242 251 253 258 263 251 253 232 236 233 229 223 242 258 240 248 196 194 186 194 206 223 244 269 268 272 298 264 269 247 235 247 252 249 256 273 281
294 306 289 248 246 248 243 241 244 245 247 257 254 242 240 249 263 264 260 259 262 251 277 252 218 230 209 210 230 227 232 243 264 269 272 252 256 244 233 249 258 261 267 268
278 281 290 280 257 250 253 247 243 247 249 252 256 255 247 251 262 263 252 230 230 212 226 265 263 271 265 266 242 255 247 267 240 264 264 255 241 245 238 239 245 250 250 255
277 271 272 287 282 273 264 251 241 243 248 252 257 258 247 247 256 264 264 243 241 244 235 230 239 245 251 255 273 278 278 269 273 288 267 254 255 245 238 238 243 249 248 244
284 287 280 272 275 282 274 257 257 251 250 250 251 253 252 254 254 255 259 252 250 251 254 256 252 254 259 261 269 267 256 253 258 274 273 265 257 243 244 246 249 252 251 246
279 278 281 279 273 275 267 273 263 262 257 256 256 254 252 251 254 254 251 252 248 246 247 250 251 257 260 264 262 259 258 257 250 255 254 260 263 242 245 247 250 252 256 256
272 274 276 275 280 278 265 266 268 270 270 270 266 268 264 258 256 254 252 253 256 257 258 261 260 265 268 267 266 263 274 278 258 265 259 263 252 254 245 244 247 251 254 257
273 272 274 280 280 279 266 265 268 270 265 271 273 272 269 266 259 259 258 258 260 262 266 272 271 276 273 273 273 274 275 274 263 249 246 239 236 246 246 246 247 250 254 256
269 271 273 273 273 270 268 263 261 261 264 268 271 275 277 271 266 263 263 263 268 264 261 264 267 265 272 275 274 271 267 257 244 238 234 238 249 241 240 243 251 249 253 255
265 267 271 272 273 274 274 271 260 256 260 266 271 275 276 276 272 267 262 258 258 261 259 260 264 267 271 273 271 264 260 251 239 240 244 240 244 246 242 243 238 248 252 254
267 270 268 269 273 276 273 271 269 265 262 265 270 270 269 268 266 266 260 254 254 257 259 255 257 264 267 269 271 271 267 254 248 239 244 244 246 249 247 255 237 248 253 255
274 277 275 270 269 269 270 268 267 268 269 271 271 270 272 274 273 271 271 269 263 260 259 260 260 262 267 266 268 268 267 261 250 249 248 244 249 253 258 257 253 253 253 261
273 272 269 266 269 266 268 274 275 274 273 273 274 273 270 272 276 280 281 278 274 273 272 267 257 255 261 264 264 264 265 264 259 250 252 254 254 254 255 264 254 257 260 274
270 266 263 263 263 267 269 272 275 277 276 275 273 272 275 278 280 280 280 281 282 280 276 272 270 267 268 267 260 263 265 263 262 257 254 254 253 256 260 263 259 264 260 273
Height
5903 5903 5908 5913 5913 5914 5912 5911 5911 5912 5914 5913 5915 5914 5913 5912 5909 5907 5905 5902 5901 5902 5901 5900 5901 5902 5903 5901 5900 5900 5899 5899 5899 5900 5899 5900 5903 5902 5902 5902 5902 5904 5904 5905
5900 5901 5908 5908 5910 5911 5912 5911 5911 5913 5912 5914 5913 5914 5914 5912 5911 5909 5906 5903 5903 5904 5906 5906 5906 5905 5904 5902 5898 5899 5899 5900 5900 5900 5900 5903 5904 5902 5900 5899 5900 5901 5902 5903
5898 5904 5903 5904 5906 5908 5908 5908 5909 5911 5912 5913 5913 5914 5912 5912 5911 5909 5907 5906 5903 5905 5906 5907 5908 5908 5906 5904 5900 5899 5900 5901 5900 5902 5902 5903 5902 5901 5899 5898 5899 5898 5900 5903
5896 5896 5898 5899 5902 5905 5905 5906 5906 5907 5907 5909 5910 5911 5911 5910 5909 5909 5907 5906 5905 5904 5905 5906 5906 5907 5907 5905 5902 5901 5901 5901 5901 5902 5903 5903 5902 5903 5901 5901 5899 5898 5899 5902
5894 5895 5897 5898 5902 5900 5902 5903 5904 5904 5904 5905 5907 5907 5907 5907 5907 5908 5907 5906 5905 5904 5903 5905 5904 5905 5906 5907 5904 5902 5901 5901 5903 5903 5902 5903 5903 5905 5905 5904 5904 5903 5902 5904
5889 5891 5894 5896 5898 5897 5898 5899 5900 5901 5902 5901 5904 5903 5905 5906 5907 5906 5904 5904 5903 5903 5903 5904 5904 5904 5904 5905 5906 5902 5901 5902 5903 5904 5903 5903 5904 5905 5906 5906 5906 5905 5905 5907
5886 5887 5889 5892 5893 5893 5894 5896 5896 5897 5898 5898 5900 5899 5901 5903 5903 5904 5900 5900 5900 5901 5902 5903 5903 5904 5903 5902 5904 5905 5902 5902 5903 5903 5904 5905 5905 5906 5907 5907 5907 5907 5907 5907
5886 5887 5888 5889 5889 5892 5892 5894 5892 5891 5893 5895 5896 5896 5900 5898 5899 5900 5900 5898 5899 5902 5901 5901 5901 5903 5903 5902 5903 5903 5903 5903 5904 5905 5906 5905 5905 5905 5906 5907 5907 5906 5907 5907
5884 5886 5887 5887 5885 5886 5889 5889 5889 5887 5887 5888 5891 5892 5894 5892 5894 5896 5897 5896 5896 5897 5899 5901 5900 5901 5902 5903 5902 5902 5902 5902 5904 5905 5906 5905 5904 5904 5906 5907 5907 5906 5905 5905
5880 5882 5882 5882 5883 5881 5883 5885 5885 5884 5884 5884 5884 5886 5888 5889 5889 5889 5892 5895 5894 5894 5897 5901 5902 5899 5900 5900 5901 5901 5902 5902 5902 5903 5905 5905 5904 5904 5905 5907 5906 5906 5904 5902
5877 5877 5880 5878 5878 5879 5879 5879 5880 5882 5882 5881 5882 5882 5883 5885 5887 5886 5887 5889 5891 5893 5896 5898 5899 5898 5898 5899 5899 5900 5901 5901 5901 5902 5904 5904 5904 5904 5905 5906 5905 5905 5904 5902
5875 5871 5871 5873 5871 5873 5874 5875 5876 5878 5879 5878 5878 5879 5879 5881 5883 5883 5881 5885 5888 5889 5889 5892 5894 5897 5898 5896 5898 5898 5900 5900 5900 5901 5901 5902 5903 5903 5903 5903 5903 5903 5903 5902
5870 5868 5867 5866 5867 5867 5868 5870 5871 5873 5874 5873 5876 5878 5877 5878 5878 5879 5879 5881 5884 5886 5887 5888 5890 5891 5890 5889 5890 5893 5895 5897 5897 5899 5899 5900 5901 5902 5902 5902 5902 5902 5901 5901
5866 5865 5865 5864 5863 5863 5863 5865 5866 5867 5869 5868 5870 5874 5875 5874 5874 5873 5876 5879 5880 5882 5885 5888 5892 5893 5893 5892 5891 5891 5888 5890 5894 5896 5895 5896 5898 5898 5899 5899 5900 5899 5899 5898
5862 5862 5861 5861 5860 5859 5860 5861 5862 5862 5862 5863 5865 5868 5871 5871 5870 5870 5871 5873 5876 5879 5881 5883 5884 5886 5889 5893 5894 5892 5889 5890 5889 5889 5892 5891 5892 5893 5895 5895 5895 5895 5895 5895
5856 5857 5857 5857 5855 5854 5854 5853 5855 5854 5855 5856 5858 5860 5863 5866 5866 5865 5866 5868 5871 5873 5876 5878 5879 5880 5883 5885 5886 5885 5884 5886 5885 5885 5886 5887 5886 5885 5889 5889 5889 5889 5889 5888
5851 5850 5851 5852 5850 5850 5850 5847 5847 5846 5847 5849 5850 5852 5855 5858 5859 5859 5861 5861 5863 5865 5867 5869 5871 5871 5871 5872 5874 5876 5879 5882 5881 5880 5879 5879 5831 5862 5881 5882 5881 5882 5881 5880
5846 5844 5844 5845 5845 5845 5844 5842 5841 5839 5840 5841 5842 5843 5845 5848 5850 5852 5854 5855 5856 5857 5858 5859 5860 5862 5863 5863 5864 5866 5868 5870 5872 5873 5872 5871 5872 5870 5872 5873 5872 5871 5871 5872
5840 5839 5839 5838 5838 5840 5837 5835 5835 5833 5833 5834 5836 5837 5838 5839 5841 5843 5844 5846 5847 5848 5849 5850 5850 5850 5849 5850 5851 5854 5854 5854 5856 5858 5861 5861 5861 5863 5862 5861 5861 5860 5860 5862
5832 5832 5831 5832 5832 5832 5833 5831 5828 5826 5824 5826 5828 5830 5831 5831 5833 5834 5835 5836 5838 5837 5839 5840 5839 5837 5836 5835 5835 5836 5837 5837 5837 5838 5845 5846 5846 5848 5848 5849 5848 5849 5849 5851
5825 5824 5824 5824 5823 5825 5826 5827 5825 5821 5822 5819 5820 5820 5821 5823 5824 5825 5827 5825 5825 5826 5826 5824 5824 5823 5823 5821 5821 5822 5823 5824 5824 5828 5830 5830 5833 5834 5835 5840 5836 5840 5838 5838
5817 5817 5816 5816 5815 5814 5816 5816 5817 5814 5812 5811 5810 5810 5810 5811 5813 5814 5815 5816 5816 5815 5815 5814 5814 5813 5813 5811 5811 5811 5812 5815 5814 5817 5819 5819 5818 5821 5818 5813 5799 5827 5825 5825
5811 5812 5809 5807 5806 5804 5804 5803 5803 5803 5802 5801 5800 5799 5799 5798 5799 5800 5802 5804 5804 5805 5805 5806 5806 5803 5804 5802 5802 5801 5800 5801 5803 5805 5804 5809 5803 5804 5807 5800 5804 5807 5810 5811
5802 5799 5797 5796 5799 5794 5791 5790 5790 5791 5791 5791 5791 5790 5788 5787 5786 5788 5789 5790 5791 5792 5793 5794 5795 5795 5795 5793 5792 5792 5790 5790 5792 5793 5793 5796 5794 5794 5790 5779 5788 5791 5794 5800
5797 5791 5785 5782 5786 5781 5780 5778 5777 5779 5778 5777 5776 5776 5776 5775 5774 5773 5774 5777 5779 5779 5780 5781 5782 5783 5784 5783 5782 5780 5779 5779 5779 5782 5783 5783 5784 5785 5784 5784 5789 5785 5783 5786
5784 5778 5769 5768 5773 5769 5770 5766 5764 5765 5765 5764 5762 5761 5760 5761 5762 5762 5761 5758 5757 5760 5763 5765 5766 5767 5767 5767 5767 5768 5767 5766 5766 5768 5770 5771 5772 5773 5775 5776 5777 5778 5774 5774